Hourly Data Report for August 03, 2000

SHERBROOKE A
QUEBEC

45°26'00.000" N
71°41'00.000" W
241.40 m
7028124
71610
YSC

Download Data

Hourly Data (August 2000)
Hourly Data Report for August 3, 2000
TIME
LST
Temp Definition
°C
Dew Point Definition
°C
Rel Hum Definition
%
Precip. Amount Definition
mm

Wind Dir Definition
10's deg

Wind Spd Definition
km/h
Visibility Definition
km
Stn Press Definition
kPa
Hmdx Definition


Wind Chill Definition


Weather Definition


00:00 20.6 18.8 89   19 4 8.0 98.32 27    
01:00 19.8 18.4 92   16 6 8.0 98.29      
02:00 19.4 18.2 93   21 4 5.6 98.32      
03:00 17.5 17.0 97     0 1.0 98.29      
04:00 16.5 16.3 99     0 1.8 98.32      
05:00 17.3 16.8 97   8 4 3.1 98.32      
06:00 19.9 18.5 92     0 4.0 98.29      
07:00 21.8 19.4 86     0 11.3 98.29 29   Mainly Clear
08:00 25.0 20.4 76   22 15 12.9 98.29 33   Mainly Clear
09:00 25.4 18.9 67   22 24 16.1 98.29 32   Mostly Cloudy
10:00 27.2 18.9 61   24 22 19.3 98.29 34   Mostly Cloudy
11:00 27.5 17.8 55   22 20 19.3 98.26 33   Mainly Clear
12:00 28.2 17.8 53   25 22 19.3 98.19 34   Mainly Clear
13:00 27.0 17.6 56   25 17 19.3 98.19 33   Mostly Cloudy
14:00 26.8 18.1 59   28 15 19.3 98.19 33   Mostly Cloudy
15:00 27.2 16.8 53   25 19 19.3 98.16 32   Mostly Cloudy
16:00 27.1 17.6 56   27 15 19.3 98.12 33   Mainly Clear
17:00 24.6 18.0 67   22 6 15.0 98.09 31    
18:00 21.3 17.1 77   26 7 15.0 98.16 27   Rain
19:00 19.4 18.1 92   20 7 6.4 98.12     Rain
20:00 19.4 18.0 92   23 6 15.0 98.22      
21:00 18.8 18.0 95   23 4 15.0 98.26      
22:00 19.1 18.0 93   23 6 15.0 98.29      
23:00 19.0 17.2 89   28 19 15.0 98.39      

Notes on Data Quality.

Legend

  • E = Estimated
  • M = Missing
  • NA = Not Available*
  • [empty] = Indicates an unobserved value
Date modified: